SCP
2 2 2 2 2 2 2 1 0 0 1 2 2 2 2 1 2 3 2 1 1 1 0 0 0 0 0 0 0 0 0 0 0 0 0 0 0 0 0 0 0 0 0
1 1 1 2 1 2 2 2 3 3 3 2 1 1 1 1 1 2 1 0 0 0 0 0 0 0 0 0 0 0 0 0 0 0 0 0 0 0 0 0 0 0 0
0 0 0 1 1 1 1 1 1 2 3 2 2 2 1 1 1 1 1 0 0 0 0 0 0 0 0 0 0 0 0 0 0 0 0 0 0 0 0 0 0 0 0
0 0 0 0 0 0 0 0 0 0 0 0 0 0 0 0 0 0 0 1 1 1 1 0 0 0 0 0 0 0 0 0 0 0 0 0 0 0 0 0 0 0 0
0 0 0 0 0 0 0 0 0 0 0 0 0 0 0 0 0 0 0 0 0 0 0 0 0 1 1 0 1 1 0 0 0 0 0 0 0 0 0 0 0 0 0
0 0 0 0 0 0 0 0 0 0 0 0 0 0 0 0 0 0 0 0 0 0 0 0 0 0 0 0 0 0 0 0 0 0 0 0 0 0 0 0 0 0 0
0 0 0 0 0 0 0 0 0 0 0 0 0 0 0 0 0 0 0 0 0 0 0 0 0 0 0 0 0 0 0 0 0 0 0 0 0 0 0 0 0 0 0
0 0 0 0 0 0 0 0 0 0 0 0 0 0 0 0 0 0 0 0 0 0 0 0 0 0 0 0 0 0 0 0 0 0 0 0 0 0 0 0 0 0 0
0 0 0 0 0 0 0 0 0 0 0 0 0 0 0 0 0 0 0 0 0 0 0 0 0 0 0 0 0 0 0 0 0 0 0 0 0 0 0 0 0 0 0
0 0 0 0 0 0 0 0 0 0 0 0 0 0 0 0 0 0 0 0 0 0 0 0 0 0 0 0 0 0 0 0 0 0 0 0 0 0 0 0 0 0 0
0 0 0 0 0 0 0 0 0 0 0 0 0 0 0 0 0 0 0 0 0 0 0 0 0 0 0 0 0 0 0 0 0 0 0 0 0 0 0 0 0 0 0
0 0 0 0 0 0 0 0 0 0 0 0 0 0 0 0 0 0 0 0 0 0 0 0 0 0 0 0 0 0 0 0 0 0 0 0 0 0 0 0 0 0 0
0 0 0 0 0 0 0 0 0 0 0 0 0 0 0 0 0 0 0 0 0 0 0 0 0 0 0 0 0 0 0 0 0 0 0 0 0 0 0 0 -0 0 0
0 0 0 0 0 0 0 0 0 0 0 0 0 0 0 0 0 0 0 0 0 0 0 0 0 0 0 0 0 0 0 0 0 0 0 0 0 0 0 0 0 0 0
0 0 0 0 0 0 -0 -0 -0 -0 0 0 0 0 0 0 0 0 0 0 0 0 0 0 0 0 0 0 0 0 0 0 0 0 0 0 0 0 0 0 0 0 0
-0 -0 -0 -0 -0 -0 -0 -0 -0 -0 0 0 0 0 0 0 0 0 0 0 0 0 0 0 0 0 0 0 0 0 -0 0 0 0 0 0 0 0 -0 -0 0 0 0
0 0 -0 -0 -0 0 0 -0 -0 0 0 0 0 0 0 0 0 0 0 0 0 0 0 0 0 -0 -0 0 0 0 0 0 0 0 0 0 -0 0 -0 0 0 0 0
-0 -0 -0 -0 0 0 0 -0 0 0 0 0 0 0 0 0 0 0 0 0 0 0 0 0 -0 -0 -0 0 0 0 0 0 0 0 0 -0 0 0 0 0 0 -0 -0
-0 -0 -0 0 0 0 -0 0 0 0 0 0 0 0 0 0 0 0 0 0 0 0 0 0 -0 0 0 0 0 0 0 0 0 0 0 -0 0 0 0 0 0 0 0
-0 0 0 0 0 -0 0 0 0 0 0 0 0 0 0 0 0 0 0 0 0 0 0 -0 0 0 0 0 0 0 0 0 0 0 -0 0 0 0 0 0 0 0 -0
-0 0 0 -0 -0 0 0 0 0 0 0 0 0 0 0 0 0 0 0 0 0 0 0 0 0 0 0 0 0 0 0 0 0 0 0 0 0 0 -0 0 -0 -0 0
-0 0 0 0 -0 -0 0 -0 -0 0 0 0 0 0 0 0 0 0 0 0 0 0 0 0 -0 -0 0 0 0 -0 0 0 0 -0 0 0 0 -0 -0 0 0 0 -0
0 0 0 0 0 0 0 0 0 0 0 0 0 0 0 0 0 0 0 0 0 0 -0 0 -0 0 0 0 0 0 0 0 -0 0 0 0 0 0 0 0 0 -0 0
-0 0 0 -0 0 0 0 0 0 0 0 0 0 0 0 0 0 0 0 0 0 0 -0 -0 -0 -0 0 0 0 0 0 0 0 0 0 0 0 -0 0 0 0 0 0
0 -0 -0 -0 0 0 0 0 0 0 0 0 0 0 0 0 0 0 0 0 0 0 -0 -0 -0 -0 -0 -0 0 0 0 0 -0 0 0 0 0 0 0 0 0 0 0
0 -0 0 0 0 0 0 0 0 0 0 0 0 0 0 0 0 0 0 0 0 0 -0 -0 -0 -0 -0 0 0 0 0 0 0 0 0 0 0 0 0 0 0 -0 0
Wind_Speed_500mb
19 7 8 9 25 38 24 24 35 18 27 22 33 38 44 46 45 46 44 41 40 35 39 41 42 45 49 53 52 53 53 52 64 64 60 62 65 73 82 75 51 47 49
20 22 23 21 19 18 11 6 6 5 16 12 15 25 29 31 33 40 43 44 45 49 53 56 57 57 60 58 56 62 63 63 67 76 71 65 62 50 52 60 67 71 65
19 13 13 19 18 17 9 8 6 6 5 9 17 22 28 31 34 41 46 51 59 62 60 66 64 63 66 69 70 69 65 66 64 70 77 69 73 77 69 57 57 65 55
15 12 7 4 7 5 9 16 18 18 20 25 29 31 33 40 43 49 53 57 60 61 59 64 68 74 77 76 76 79 77 80 79 81 81 74 66 53 55 60 60 45 54
9 6 7 7 5 7 14 18 23 29 33 36 38 43 47 50 51 52 59 62 68 71 74 77 84 86 81 76 76 79 81 84 83 77 77 72 62 51 50 57 70 73 67
16 13 12 12 15 20 24 27 28 33 40 46 51 56 60 65 68 67 73 80 85 87 90 92 90 81 73 74 91 98 96 91 92 87 85 81 82 85 82 68 74 63 68
19 18 17 19 23 29 32 39 42 45 54 59 62 68 72 73 74 75 76 82 88 95 98 93 89 82 75 75 76 80 79 80 89 101 107 104 93 84 82 70 64 65 71
24 25 25 26 27 30 35 42 49 55 60 62 63 60 61 64 64 67 72 78 85 88 87 84 80 80 78 77 83 94 96 91 85 85 95 88 92 79 80 75 67 68 78
29 29 29 30 34 37 42 48 54 59 64 69 69 63 56 55 56 64 71 78 84 87 89 88 88 92 94 88 79 82 88 96 96 101 80 75 72 78 87 65 66 68 76
35 35 36 38 40 43 47 56 59 55 50 48 54 61 68 74 76 77 75 77 87 92 94 93 83 65 52 51 56 61 70 79 98 92 74 74 88 78 55 60 62 67 76
39 41 41 42 46 47 47 44 48 56 61 65 64 69 67 59 61 65 68 65 63 65 66 67 71 71 63 52 47 54 68 70 72 67 83 72 57 60 62 66 63 70 79
42 44 45 44 43 41 49 57 53 48 57 57 56 59 60 46 50 53 53 50 48 52 58 62 66 67 71 69 64 63 65 65 72 66 68 64 63 67 63 66 71 78 67
44 41 43 48 52 51 48 55 59 51 48 56 54 46 55 56 60 56 53 50 44 46 48 50 54 58 60 55 58 65 63 63 62 56 52 59 52 48 57 72 78 63 58
39 48 57 60 52 53 52 48 47 43 44 40 44 53 58 60 56 57 54 57 59 56 58 61 57 59 55 49 43 44 53 52 50 50 46 54 53 54 61 60 50 52 51
57 67 62 52 51 48 41 41 39 34 31 38 44 50 54 55 54 53 53 56 58 59 58 59 60 57 49 34 36 37 43 45 43 40 42 48 60 69 66 58 53 48 51
63 52 46 44 41 41 40 37 24 27 29 31 35 35 45 53 55 56 58 63 60 54 52 54 53 49 35 29 39 41 42 47 39 44 48 48 47 50 34 35 33 46 52
40 38 36 36 35 35 35 36 40 32 28 31 32 39 47 47 47 54 54 51 47 41 43 43 41 33 23 29 39 35 48 32 31 43 39 30 28 16 30 30 43 36 52
27 27 29 31 33 33 32 33 31 34 37 36 38 39 38 38 41 44 39 39 37 28 26 28 28 22 18 28 34 36 28 35 24 21 19 23 22 35 31 29 30 39 47
22 23 26 24 23 26 27 24 24 24 28 37 40 39 40 36 39 35 34 34 33 24 20 24 21 13 20 30 34 30 41 15 24 15 19 34 37 16 18 20 23 31 42
20 22 29 21 21 20 19 21 21 25 29 35 40 43 44 40 41 35 31 34 30 25 18 16 3 18 29 27 30 34 34 12 23 12 13 20 38 18 7 7 21 28 36
24 25 27 26 25 25 24 25 27 29 31 33 36 37 36 35 35 33 29 31 32 29 15 6 8 16 14 20 31 33 19 11 19 18 11 30 35 24 13 18 40 34 38
24 18 23 25 27 28 32 33 34 35 35 37 37 36 36 36 34 31 29 29 25 17 11 3 4 14 22 24 24 31 19 17 17 18 3 20 17 18 16 31 30 20 37
45 51 49 49 48 46 47 47 48 50 51 51 47 43 40 39 38 36 31 28 24 8 13 7 7 20 13 11 23 30 23 13 15 20 11 13 8 43 33 29 33 39 28
50 52 57 58 59 59 57 54 50 54 58 65 67 57 48 42 38 35 33 29 22 14 9 6 11 14 17 16 17 20 13 11 17 15 9 8 9 21 15 7 16 21 26
51 52 57 57 62 63 61 65 68 67 63 63 69 69 62 51 43 38 33 28 26 20 12 11 12 17 11 16 17 17 9 10 11 12 13 17 16 27 16 9 20 18 19
45 43 49 49 60 53 56 57 63 66 70 69 67 70 73 71 62 53 42 35 28 21 19 16 14 18 20 22 21 22 21 17 17 14 14 11 9 11 20 4 14 24 20
Wind_Direction_500mb
35 5 330 288 234 229 251 263 267 124 163 169 171 194 200 210 217 223 236 230 233 247 258 262 266 269 266 269 272 271 268 272 279 282 282 283 286 279 281 291 300 302 298
87 101 96 100 97 82 96 139 237 123 160 142 190 218 229 233 241 249 255 263 257 259 256 259 266 274 274 271 270 272 272 275 276 282 288 292 294 293 283 286 290 290 294
69 82 97 90 89 113 109 114 129 143 179 230 244 247 256 264 266 269 267 267 272 269 267 263 262 262 264 270 267 261 260 265 268 271 277 278 278 280 287 289 294 295 290
26 360 352 319 336 323 261 264 271 275 263 255 256 258 260 262 260 260 261 263 267 271 273 272 273 269 266 267 266 265 264 265 265 267 270 276 280 278 280 291 299 294 287
55 13 359 330 276 290 286 289 287 282 280 279 278 276 275 272 270 275 276 273 271 270 268 270 270 268 267 268 266 265 265 264 263 263 267 271 266 270 278 281 282 291 299
349 342 345 315 305 301 306 307 302 297 290 284 285 283 281 278 272 265 263 268 271 274 275 270 267 264 264 270 269 267 265 267 268 264 263 262 266 271 275 278 281 286 291
329 323 320 314 318 317 306 295 288 284 283 284 285 285 284 283 281 281 280 280 276 275 277 281 280 276 273 271 271 268 269 268 266 268 265 263 260 261 266 270 274 281 295
315 315 313 311 303 295 287 286 289 290 288 291 291 287 285 289 290 290 285 281 278 278 278 279 280 281 280 281 275 269 265 261 262 268 265 272 261 256 262 266 274 286 293
309 310 308 304 299 293 293 291 288 289 291 290 293 298 297 289 281 277 277 278 278 279 279 279 277 277 277 279 271 270 271 270 267 267 268 270 268 262 264 261 267 277 289
307 304 302 301 299 294 291 293 300 304 302 291 281 278 278 279 277 283 286 284 282 282 281 283 284 284 289 284 278 276 279 280 271 267 266 260 256 258 242 252 262 275 284
301 302 301 297 297 302 306 293 283 282 286 286 285 288 295 296 296 295 294 293 291 291 288 285 281 284 274 268 274 278 278 285 284 277 265 262 251 244 250 264 266 273 277
299 299 299 300 297 289 284 288 291 290 287 291 298 300 305 311 316 316 314 306 300 296 295 293 287 284 282 275 270 272 274 280 281 279 262 262 265 258 255 253 262 275 265
295 293 288 283 286 292 287 286 294 296 291 296 303 310 313 312 307 305 303 303 301 299 295 295 289 285 291 286 274 271 279 274 275 279 259 251 258 255 260 264 267 260 264
278 282 288 294 294 294 298 300 303 302 302 304 304 304 307 309 312 317 313 305 302 296 284 283 279 279 290 287 290 281 277 272 274 270 270 266 266 263 263 266 256 266 250
286 293 298 299 302 305 306 305 300 300 304 305 306 307 308 307 308 308 305 302 299 296 297 292 292 290 288 278 297 294 291 275 275 268 262 257 256 263 263 262 250 243 235
294 297 300 305 311 313 314 314 310 311 311 308 312 312 308 305 307 308 309 308 304 296 287 287 288 295 292 279 293 305 295 283 271 255 259 262 262 261 237 231 240 221 210
298 304 311 314 316 320 324 323 321 318 323 331 326 313 309 310 314 317 315 313 312 304 291 290 288 288 282 294 302 303 299 296 270 259 277 254 253 185 221 203 149 156 171
311 318 320 321 322 323 320 318 320 326 332 333 334 332 327 326 328 328 326 329 331 325 318 308 293 290 285 295 317 306 307 299 300 308 238 199 167 167 154 175 164 173 188
330 332 334 337 344 336 330 329 329 334 336 334 342 343 342 344 340 340 349 343 343 339 333 322 311 300 302 317 313 310 333 319 329 309 227 197 216 257 260 241 222 208 205
17 18 351 334 324 327 337 343 342 347 344 346 349 349 347 348 353 358 359 353 345 331 322 308 245 305 310 326 312 334 338 331 352 324 221 206 194 261 309 218 217 206 218
44 13 12 22 21 18 13 9 4 359 354 351 353 354 354 353 356 357 356 1 348 342 315 266 310 341 338 338 325 329 331 15 359 354 238 205 216 272 265 214 215 283 267
58 28 26 38 28 29 27 25 20 15 8 4 0 1 2 6 1 358 358 0 360 12 14 313 245 343 359 338 358 5 15 30 348 19 123 196 240 258 241 242 277 249 177
67 59 58 61 60 56 52 47 43 39 34 27 17 12 10 9 8 6 2 1 6 9 13 314 264 359 342 2 11 17 35 63 29 55 80 169 239 203 247 277 228 231 206
75 65 66 63 61 57 53 48 45 42 35 29 25 23 19 14 12 11 10 6 2 0 265 291 289 315 335 329 7 27 31 49 42 41 63 143 240 269 253 319 118 140 130
73 73 63 62 59 54 52 52 49 46 44 43 34 30 28 24 20 17 14 9 4 356 334 282 326 292 278 322 328 338 346 339 333 303 328 284 350 18 74 93 136 144 147
56 53 55 43 43 37 41 40 39 38 38 38 39 34 33 32 28 21 16 15 10 359 348 332 301 273 270 287 290 299 309 303 310 305 307 329 288 5 4 132 157 160 140
Wind_Speed_850mb
19 7 8 9 25 38 24 24 35 18 27 22 33 38 44 46 45 46 44 41 40 35 39 41 42 45 49 53 52 53 53 52 64 64 60 62 65 73 82 75 51 47 49
20 22 23 21 19 18 11 6 6 5 16 12 15 25 29 31 33 40 43 44 45 49 53 56 57 57 60 58 56 62 63 63 67 76 71 65 62 50 52 60 67 71 65
19 13 13 19 18 17 9 8 6 6 5 9 17 22 28 31 34 41 46 51 59 62 60 66 64 63 66 69 70 69 65 66 64 70 77 69 73 77 69 57 57 65 55
15 12 7 4 7 5 9 16 18 18 20 25 29 31 33 40 43 49 53 57 60 61 59 64 68 74 77 76 76 79 77 80 79 81 81 74 66 53 55 60 60 45 54
9 6 7 7 5 7 14 18 23 29 33 36 38 43 47 50 51 52 59 62 68 71 74 77 84 86 81 76 76 79 81 84 83 77 77 72 62 51 50 57 70 73 67
16 13 12 12 15 20 24 27 28 33 40 46 51 56 60 65 68 67 73 80 85 87 90 92 90 81 73 74 91 98 96 91 92 87 85 81 82 85 82 68 74 63 68
19 18 17 19 23 29 32 39 42 45 54 59 62 68 72 73 74 75 76 82 88 95 98 93 89 82 75 75 76 80 79 80 89 101 107 104 93 84 82 70 64 65 71
24 25 25 26 27 30 35 42 49 55 60 62 63 60 61 64 64 67 72 78 85 88 87 84 80 80 78 77 83 94 96 91 85 85 95 88 92 79 80 75 67 68 78
29 29 29 30 34 37 42 48 54 59 64 69 69 63 56 55 56 64 71 78 84 87 89 88 88 92 94 88 79 82 88 96 96 101 80 75 72 78 87 65 66 68 76
35 35 36 38 40 43 47 56 59 55 50 48 54 61 68 74 76 77 75 77 87 92 94 93 83 65 52 51 56 61 70 79 98 92 74 74 88 78 55 60 62 67 76
39 41 41 42 46 47 47 44 48 56 61 65 64 69 67 59 61 65 68 65 63 65 66 67 71 71 63 52 47 54 68 70 72 67 83 72 57 60 62 66 63 70 79
42 44 45 44 43 41 49 57 53 48 57 57 56 59 60 46 50 53 53 50 48 52 58 62 66 67 71 69 64 63 65 65 72 66 68 64 63 67 63 66 71 78 67
44 41 43 48 52 51 48 55 59 51 48 56 54 46 55 56 60 56 53 50 44 46 48 50 54 58 60 55 58 65 63 63 62 56 52 59 52 48 57 72 78 63 58
39 48 57 60 52 53 52 48 47 43 44 40 44 53 58 60 56 57 54 57 59 56 58 61 57 59 55 49 43 44 53 52 50 50 46 54 53 54 61 60 50 52 51
57 67 62 52 51 48 41 41 39 34 31 38 44 50 54 55 54 53 53 56 58 59 58 59 60 57 49 34 36 37 43 45 43 40 42 48 60 69 66 58 53 48 51
63 52 46 44 41 41 40 37 24 27 29 31 35 35 45 53 55 56 58 63 60 54 52 54 53 49 35 29 39 41 42 47 39 44 48 48 47 50 34 35 33 46 52
40 38 36 36 35 35 35 36 40 32 28 31 32 39 47 47 47 54 54 51 47 41 43 43 41 33 23 29 39 35 48 32 31 43 39 30 28 16 30 30 43 36 52
27 27 29 31 33 33 32 33 31 34 37 36 38 39 38 38 41 44 39 39 37 28 26 28 28 22 18 28 34 36 28 35 24 21 19 23 22 35 31 29 30 39 47
22 23 26 24 23 26 27 24 24 24 28 37 40 39 40 36 39 35 34 34 33 24 20 24 21 13 20 30 34 30 41 15 24 15 19 34 37 16 18 20 23 31 42
20 22 29 21 21 20 19 21 21 25 29 35 40 43 44 40 41 35 31 34 30 25 18 16 3 18 29 27 30 34 34 12 23 12 13 20 38 18 7 7 21 28 36
24 25 27 26 25 25 24 25 27 29 31 33 36 37 36 35 35 33 29 31 32 29 15 6 8 16 14 20 31 33 19 11 19 18 11 30 35 24 13 18 40 34 38
24 18 23 25 27 28 32 33 34 35 35 37 37 36 36 36 34 31 29 29 25 17 11 3 4 14 22 24 24 31 19 17 17 18 3 20 17 18 16 31 30 20 37
45 51 49 49 48 46 47 47 48 50 51 51 47 43 40 39 38 36 31 28 24 8 13 7 7 20 13 11 23 30 23 13 15 20 11 13 8 43 33 29 33 39 28
50 52 57 58 59 59 57 54 50 54 58 65 67 57 48 42 38 35 33 29 22 14 9 6 11 14 17 16 17 20 13 11 17 15 9 8 9 21 15 7 16 21 26
51 52 57 57 62 63 61 65 68 67 63 63 69 69 62 51 43 38 33 28 26 20 12 11 12 17 11 16 17 17 9 10 11 12 13 17 16 27 16 9 20 18 19
45 43 49 49 60 53 56 57 63 66 70 69 67 70 73 71 62 53 42 35 28 21 19 16 14 18 20 22 21 22 21 17 17 14 14 11 9 11 20 4 14 24 20
Wind_Direction_850mb
35 5 330 288 234 229 251 263 267 124 163 169 171 194 200 210 217 223 236 230 233 247 258 262 266 269 266 269 272 271 268 272 279 282 282 283 286 279 281 291 300 302 298
87 101 96 100 97 82 96 139 237 123 160 142 190 218 229 233 241 249 255 263 257 259 256 259 266 274 274 271 270 272 272 275 276 282 288 292 294 293 283 286 290 290 294
69 82 97 90 89 113 109 114 129 143 179 230 244 247 256 264 266 269 267 267 272 269 267 263 262 262 264 270 267 261 260 265 268 271 277 278 278 280 287 289 294 295 290
26 360 352 319 336 323 261 264 271 275 263 255 256 258 260 262 260 260 261 263 267 271 273 272 273 269 266 267 266 265 264 265 265 267 270 276 280 278 280 291 299 294 287
55 13 359 330 276 290 286 289 287 282 280 279 278 276 275 272 270 275 276 273 271 270 268 270 270 268 267 268 266 265 265 264 263 263 267 271 266 270 278 281 282 291 299
349 342 345 315 305 301 306 307 302 297 290 284 285 283 281 278 272 265 263 268 271 274 275 270 267 264 264 270 269 267 265 267 268 264 263 262 266 271 275 278 281 286 291
329 323 320 314 318 317 306 295 288 284 283 284 285 285 284 283 281 281 280 280 276 275 277 281 280 276 273 271 271 268 269 268 266 268 265 263 260 261 266 270 274 281 295
315 315 313 311 303 295 287 286 289 290 288 291 291 287 285 289 290 290 285 281 278 278 278 279 280 281 280 281 275 269 265 261 262 268 265 272 261 256 262 266 274 286 293
309 310 308 304 299 293 293 291 288 289 291 290 293 298 297 289 281 277 277 278 278 279 279 279 277 277 277 279 271 270 271 270 267 267 268 270 268 262 264 261 267 277 289
307 304 302 301 299 294 291 293 300 304 302 291 281 278 278 279 277 283 286 284 282 282 281 283 284 284 289 284 278 276 279 280 271 267 266 260 256 258 242 252 262 275 284
301 302 301 297 297 302 306 293 283 282 286 286 285 288 295 296 296 295 294 293 291 291 288 285 281 284 274 268 274 278 278 285 284 277 265 262 251 244 250 264 266 273 277
299 299 299 300 297 289 284 288 291 290 287 291 298 300 305 311 316 316 314 306 300 296 295 293 287 284 282 275 270 272 274 280 281 279 262 262 265 258 255 253 262 275 265
295 293 288 283 286 292 287 286 294 296 291 296 303 310 313 312 307 305 303 303 301 299 295 295 289 285 291 286 274 271 279 274 275 279 259 251 258 255 260 264 267 260 264
278 282 288 294 294 294 298 300 303 302 302 304 304 304 307 309 312 317 313 305 302 296 284 283 279 279 290 287 290 281 277 272 274 270 270 266 266 263 263 266 256 266 250
286 293 298 299 302 305 306 305 300 300 304 305 306 307 308 307 308 308 305 302 299 296 297 292 292 290 288 278 297 294 291 275 275 268 262 257 256 263 263 262 250 243 235
294 297 300 305 311 313 314 314 310 311 311 308 312 312 308 305 307 308 309 308 304 296 287 287 288 295 292 279 293 305 295 283 271 255 259 262 262 261 237 231 240 221 210
298 304 311 314 316 320 324 323 321 318 323 331 326 313 309 310 314 317 315 313 312 304 291 290 288 288 282 294 302 303 299 296 270 259 277 254 253 185 221 203 149 156 171
311 318 320 321 322 323 320 318 320 326 332 333 334 332 327 326 328 328 326 329 331 325 318 308 293 290 285 295 317 306 307 299 300 308 238 199 167 167 154 175 164 173 188
330 332 334 337 344 336 330 329 329 334 336 334 342 343 342 344 340 340 349 343 343 339 333 322 311 300 302 317 313 310 333 319 329 309 227 197 216 257 260 241 222 208 205
17 18 351 334 324 327 337 343 342 347 344 346 349 349 347 348 353 358 359 353 345 331 322 308 245 305 310 326 312 334 338 331 352 324 221 206 194 261 309 218 217 206 218
44 13 12 22 21 18 13 9 4 359 354 351 353 354 354 353 356 357 356 1 348 342 315 266 310 341 338 338 325 329 331 15 359 354 238 205 216 272 265 214 215 283 267
58 28 26 38 28 29 27 25 20 15 8 4 0 1 2 6 1 358 358 0 360 12 14 313 245 343 359 338 358 5 15 30 348 19 123 196 240 258 241 242 277 249 177
67 59 58 61 60 56 52 47 43 39 34 27 17 12 10 9 8 6 2 1 6 9 13 314 264 359 342 2 11 17 35 63 29 55 80 169 239 203 247 277 228 231 206
75 65 66 63 61 57 53 48 45 42 35 29 25 23 19 14 12 11 10 6 2 0 265 291 289 315 335 329 7 27 31 49 42 41 63 143 240 269 253 319 118 140 130
73 73 63 62 59 54 52 52 49 46 44 43 34 30 28 24 20 17 14 9 4 356 334 282 326 292 278 322 328 338 346 339 333 303 328 284 350 18 74 93 136 144 147
56 53 55 43 43 37 41 40 39 38 38 38 39 34 33 32 28 21 16 15 10 359 348 332 301 273 270 287 290 299 309 303 310 305 307 329 288 5 4 132 157 160 140